owner,sensor,date,latitude,longitude,vertical_datum,wind_speed,wind_to_direction,wind_speed_of_gust,qcFlag 
DISL,ioos:station:DISL:PPTA:1,2017-03-01T00:00:00Z,30.2791,-87.5561,0.0,2.91,112.7,-999.0,'1111122,1111122,1111122' 
DISL,ioos:station:DISL:PPTA:1,2017-03-01T00:30:00Z,30.2791,-87.5561,0.0,2.64,112.0,-999.0,'1111122,1111122,1111122' 
DISL,ioos:station:DISL:PPTA:1,2017-03-01T01:00:00Z,30.2791,-87.5561,0.0,3.59,133.6,-999.0,'1111122,1111122,1111122' 
DISL,ioos:station:DISL:PPTA:1,2017-03-01T01:30:00Z,30.2791,-87.5561,0.0,3.26,135.0,-999.0,'1111122,1111122,1111122' 
DISL,ioos:station:DISL:PPTA:1,2017-03-01T02:00:00Z,30.2791,-87.5561,0.0,3.04,134.1,-999.0,'1111122,1111122,1111122' 
DISL,ioos:station:DISL:PPTA:1,2017-03-01T02:30:00Z,30.2791,-87.5561,0.0,3.19,140.1,-999.0,'1111122,1111122,1111122' 
DISL,ioos:station:DISL:PPTA:1,2017-03-01T03:00:00Z,30.2791,-87.5561,0.0,2.51,152.0,-999.0,'1111122,1111122,1111122' 
DISL,ioos:station:DISL:PPTA:1,2017-03-01T03:30:00Z,30.2791,-87.5561,0.0,2.04,155.7,-999.0,'1111122,1111122,1111122' 
DISL,ioos:station:DISL:PPTA:1,2017-03-01T04:00:00Z,30.2791,-87.5561,0.0,2.57,148.0,-999.0,'1111122,1111122,1111122' 
DISL,ioos:station:DISL:PPTA:1,2017-03-01T04:30:00Z,30.2791,-87.5561,0.0,2.64,150.5,-999.0,'1111122,1111122,1111122' 
DISL,ioos:station:DISL:PPTA:1,2017-03-01T05:00:00Z,30.2791,-87.5561,0.0,1.4,152.5,-999.0,'1111122,1111122,1111122' 
DISL,ioos:station:DISL:PPTA:1,2017-03-01T05:30:00Z,30.2791,-87.5561,0.0,0.91,142.0,-999.0,'1111122,1111122,1111122' 
DISL,ioos:station:DISL:PPTA:1,2017-03-01T06:00:00Z,30.2791,-87.5561,0.0,1.05,131.8,-999.0,'1111122,1111122,1111122' 
DISL,ioos:station:DISL:PPTA:1,2017-03-01T06:30:00Z,30.2791,-87.5561,0.0,1.98,140.4,-999.0,'1111122,1111122,1111122' 
DISL,ioos:station:DISL:PPTA:1,2017-03-01T07:00:00Z,30.2791,-87.5561,0.0,1.6,164.7,-999.0,'1111122,1111122,1111122' 
DISL,ioos:station:DISL:PPTA:1,2017-03-01T07:30:00Z,30.2791,-87.5561,0.0,1.24,174.3,-999.0,'1111122,1111122,1111122' 
DISL,ioos:station:DISL:PPTA:1,2017-03-01T08:00:00Z,30.2791,-87.5561,0.0,1.84,164.9,-999.0,'1111122,1111122,1111122' 
DISL,ioos:station:DISL:PPTA:1,2017-03-01T08:30:00Z,30.2791,-87.5561,0.0,1.79,173.0,-999.0,'1111122,1111122,1111122' 
DISL,ioos:station:DISL:PPTA:1,2017-03-01T09:00:00Z,30.2791,-87.5561,0.0,1.72,183.2,-999.0,'1111122,1111122,1111122' 
DISL,ioos:station:DISL:PPTA:1,2017-03-01T09:30:00Z,30.2791,-87.5561,0.0,1.68,189.6,-999.0,'1111122,1111122,1111122' 
DISL,ioos:station:DISL:PPTA:1,2017-03-01T10:00:00Z,30.2791,-87.5561,0.0,3.18,181.2,-999.0,'1111122,1111122,1111122' 
DISL,ioos:station:DISL:PPTA:1,2017-03-01T10:30:00Z,30.2791,-87.5561,0.0,1.89,183.6,-999.0,'1111122,1111122,1111122' 
DISL,ioos:station:DISL:PPTA:1,2017-03-01T11:00:00Z,30.2791,-87.5561,0.0,2.44,183.6,-999.0,'1111122,1111122,1111122' 
DISL,ioos:station:DISL:PPTA:1,2017-03-01T11:30:00Z,30.2791,-87.5561,0.0,2.9,188.3,-999.0,'1111122,1111122,1111122' 
DISL,ioos:station:DISL:PPTA:1,2017-03-01T12:00:00Z,30.2791,-87.5561,0.0,4.16,184.2,-999.0,'1111122,1111122,1111122' 
DISL,ioos:station:DISL:PPTA:1,2017-03-01T12:30:00Z,30.2791,-87.5561,0.0,3.33,190.9,-999.0,'1111122,1111122,1111122' 
DISL,ioos:station:DISL:PPTA:1,2017-03-01T13:00:00Z,30.2791,-87.5561,0.0,4.4,184.2,-999.0,'1111122,1111122,1111122' 
DISL,ioos:station:DISL:PPTA:1,2017-03-01T13:30:00Z,30.2791,-87.5561,0.0,1.43,199.6,-999.0,'1111122,1111122,1111122' 
DISL,ioos:station:DISL:PPTA:1,2017-03-01T14:00:00Z,30.2791,-87.5561,0.0,1.09,206.3,-999.0,'1111122,1111122,1111122' 
DISL,ioos:station:DISL:PPTA:1,2017-03-01T14:30:00Z,30.2791,-87.5561,0.0,0.9,228.9,-999.0,'1111122,1111122,1111122' 
DISL,ioos:station:DISL:PPTA:1,2017-03-01T15:00:00Z,30.2791,-87.5561,0.0,1.63,241.8,-999.0,'1111122,1111122,1111122' 
DISL,ioos:station:DISL:PPTA:1,2017-03-01T15:30:00Z,30.2791,-87.5561,0.0,1.39,228.4,-999.0,'1111122,1111122,1111122' 
DISL,ioos:station:DISL:PPTA:1,2017-03-01T16:00:00Z,30.2791,-87.5561,0.0,1.8,216.8,-999.0,'1111122,1111122,1111122' 
DISL,ioos:station:DISL:PPTA:1,2017-03-01T16:30:00Z,30.2791,-87.5561,0.0,1.5,174.4,-999.0,'1111122,1111122,1111122' 
DISL,ioos:station:DISL:PPTA:1,2017-03-01T17:00:00Z,30.2791,-87.5561,0.0,2.56,185.3,-999.0,'1111122,1111122,1111122' 
DISL,ioos:station:DISL:PPTA:1,2017-03-01T17:30:00Z,30.2791,-87.5561,0.0,2.09,188.8,-999.0,'1111122,1111122,1111122' 
DISL,ioos:station:DISL:PPTA:1,2017-03-01T18:00:00Z,30.2791,-87.5561,0.0,2.07,201.6,-999.0,'1111122,1111122,1111122' 
DISL,ioos:station:DISL:PPTA:1,2017-03-01T18:30:00Z,30.2791,-87.5561,0.0,2.49,245.3,-999.0,'1111122,1111122,1111122' 
DISL,ioos:station:DISL:PPTA:1,2017-03-01T19:00:00Z,30.2791,-87.5561,0.0,3.3,238.5,-999.0,'1111122,1111122,1111122' 
DISL,ioos:station:DISL:PPTA:1,2017-03-01T19:30:00Z,30.2791,-87.5561,0.0,2.74,245.7,-999.0,'1111122,1111122,1111122' 
DISL,ioos:station:DISL:PPTA:1,2017-03-01T20:00:00Z,30.2791,-87.5561,0.0,2.09,199.2,-999.0,'1111122,1111122,1111122' 
DISL,ioos:station:DISL:PPTA:1,2017-03-01T20:30:00Z,30.2791,-87.5561,0.0,2.87,182.9,-999.0,'1111122,1111122,1111122' 
DISL,ioos:station:DISL:PPTA:1,2017-03-01T21:00:00Z,30.2791,-87.5561,0.0,3.22,185.0,-999.0,'1111122,1111122,1111122' 
DISL,ioos:station:DISL:PPTA:1,2017-03-01T21:30:00Z,30.2791,-87.5561,0.0,4.3,182.6,-999.0,'1111122,1111122,1111122' 
DISL,ioos:station:DISL:PPTA:1,2017-03-01T22:00:00Z,30.2791,-87.5561,0.0,3.3,183.6,-999.0,'1111122,1111122,1111122' 
DISL,ioos:station:DISL:PPTA:1,2017-03-01T22:30:00Z,30.2791,-87.5561,0.0,3.2,187.6,-999.0,'1111122,1111122,1111122' 
DISL,ioos:station:DISL:PPTA:1,2017-03-01T23:00:00Z,30.2791,-87.5561,0.0,2.39,188.0,-999.0,'1111122,1111122,1111122' 
DISL,ioos:station:DISL:PPTA:1,2017-03-01T23:30:00Z,30.2791,-87.5561,0.0,3.55,185.4,-999.0,'1111122,1111122,1111122' 
DISL,ioos:station:DISL:PPTA:1,2017-03-02T00:00:00Z,30.2791,-87.5561,0.0,2.43,189.3,-999.0,'1111122,1111122,1111122' 
DISL,ioos:station:DISL:PPTA:1,2017-03-02T00:30:00Z,30.2791,-87.5561,0.0,1.35,200.1,-999.0,'1111122,1111122,1111122' 
DISL,ioos:station:DISL:PPTA:1,2017-03-02T01:00:00Z,30.2791,-87.5561,0.0,1.59,193.9,-999.0,'1111122,1111122,1111122' 
DISL,ioos:station:DISL:PPTA:1,2017-03-02T01:30:00Z,30.2791,-87.5561,0.0,1.65,199.7,-999.0,'1111122,1111122,1111122' 
DISL,ioos:station:DISL:PPTA:1,2017-03-02T02:00:00Z,30.2791,-87.5561,0.0,1.88,204.3,-999.0,'1111122,1111122,1111122' 
DISL,ioos:station:DISL:PPTA:1,2017-03-02T02:30:00Z,30.2791,-87.5561,0.0,1.35,227.6,-999.0,'1111122,1111122,1111122' 
DISL,ioos:station:DISL:PPTA:1,2017-03-02T03:00:00Z,30.2791,-87.5561,0.0,1.49,218.6,-999.0,'1111122,1111122,1111122' 
DISL,ioos:station:DISL:PPTA:1,2017-03-02T03:30:00Z,30.2791,-87.5561,0.0,2.08,240.5,-999.0,'1111122,1111122,1111122' 
DISL,ioos:station:DISL:PPTA:1,2017-03-02T04:00:00Z,30.2791,-87.5561,0.0,2.89,243.8,-999.0,'1111122,1111122,1111122' 
DISL,ioos:station:DISL:PPTA:1,2017-03-02T04:30:00Z,30.2791,-87.5561,0.0,4.93,257.8,-999.0,'1111122,1111122,1111122' 
DISL,ioos:station:DISL:PPTA:1,2017-03-02T05:00:00Z,30.2791,-87.5561,0.0,5.33,3.245,-999.0,'1111122,1111122,1111122' 
DISL,ioos:station:DISL:PPTA:1,2017-03-02T05:30:00Z,30.2791,-87.5561,0.0,4.22,349.8,-999.0,'1111122,1111122,1111122' 
DISL,ioos:station:DISL:PPTA:1,2017-03-02T06:00:00Z,30.2791,-87.5561,0.0,5.82,351.3,-999.0,'1111122,1111122,1111122' 
DISL,ioos:station:DISL:PPTA:1,2017-03-02T06:30:00Z,30.2791,-87.5561,0.0,4.71,353.6,-999.0,'1111122,1111122,1111122' 
DISL,ioos:station:DISL:PPTA:1,2017-03-02T07:00:00Z,30.2791,-87.5561,0.0,5.88,357.3,-999.0,'1111122,1111122,1111122' 
DISL,ioos:station:DISL:PPTA:1,2017-03-02T07:30:00Z,30.2791,-87.5561,0.0,7.01,357.6,-999.0,'1111122,1111122,1111122' 
DISL,ioos:station:DISL:PPTA:1,2017-03-02T08:00:00Z,30.2791,-87.5561,0.0,7.35,2.271,-999.0,'1111122,1111122,1111122' 
DISL,ioos:station:DISL:PPTA:1,2017-03-02T08:30:00Z,30.2791,-87.5561,0.0,6.75,349.6,-999.0,'1111122,1111122,1111122' 
DISL,ioos:station:DISL:PPTA:1,2017-03-02T09:00:00Z,30.2791,-87.5561,0.0,7.64,359.4,-999.0,'1111122,1111122,1111122' 
DISL,ioos:station:DISL:PPTA:1,2017-03-02T09:30:00Z,30.2791,-87.5561,0.0,8.36,354.4,-999.0,'1111122,1111122,1111122' 
DISL,ioos:station:DISL:PPTA:1,2017-03-02T10:00:00Z,30.2791,-87.5561,0.0,7.95,359.6,-999.0,'1111122,1111122,1111122' 
DISL,ioos:station:DISL:PPTA:1,2017-03-02T10:30:00Z,30.2791,-87.5561,0.0,7.31,359.1,-999.0,'1111122,1111122,1111122' 
DISL,ioos:station:DISL:PPTA:1,2017-03-02T11:00:00Z,30.2791,-87.5561,0.0,6.57,1.086,-999.0,'1111122,1111122,1111122' 
DISL,ioos:station:DISL:PPTA:1,2017-03-02T11:30:00Z,30.2791,-87.5561,0.0,7.62,6.033,-999.0,'1111122,1111122,1111122' 
DISL,ioos:station:DISL:PPTA:1,2017-03-02T12:00:00Z,30.2791,-87.5561,0.0,7.45,0.949,-999.0,'1111122,1111122,1111122' 
DISL,ioos:station:DISL:PPTA:1,2017-03-02T12:30:00Z,30.2791,-87.5561,0.0,7.42,8.0,-999.0,'1111122,1111122,1111122' 
DISL,ioos:station:DISL:PPTA:1,2017-03-02T13:00:00Z,30.2791,-87.5561,0.0,8.39,12.29,-999.0,'1111122,1111122,1111122' 
DISL,ioos:station:DISL:PPTA:1,2017-03-02T13:30:00Z,30.2791,-87.5561,0.0,7.97,16.98,-999.0,'1111122,1111122,1111122' 
DISL,ioos:station:DISL:PPTA:1,2017-03-02T14:00:00Z,30.2791,-87.5561,0.0,8.0,14.1,-999.0,'1111122,1111122,1111122' 
DISL,ioos:station:DISL:PPTA:1,2017-03-02T14:30:00Z,30.2791,-87.5561,0.0,8.64,15.68,-999.0,'1111122,1111122,1111122' 
DISL,ioos:station:DISL:PPTA:1,2017-03-02T15:00:00Z,30.2791,-87.5561,0.0,8.17,20.23,-999.0,'1111122,1111122,1111122' 
DISL,ioos:station:DISL:PPTA:1,2017-03-02T15:30:00Z,30.2791,-87.5561,0.0,8.28,17.77,-999.0,'1111122,1111122,1111122' 
DISL,ioos:station:DISL:PPTA:1,2017-03-02T16:00:00Z,30.2791,-87.5561,0.0,8.96,13.14,-999.0,'1111122,1111122,1111122' 
DISL,ioos:station:DISL:PPTA:1,2017-03-02T16:30:00Z,30.2791,-87.5561,0.0,7.85,5.309,-999.0,'1111122,1111122,1111122' 
DISL,ioos:station:DISL:PPTA:1,2017-03-02T17:00:00Z,30.2791,-87.5561,0.0,8.11,27.08,-999.0,'1111122,1111122,1111122' 
DISL,ioos:station:DISL:PPTA:1,2017-03-02T17:30:00Z,30.2791,-87.5561,0.0,7.87,18.34,-999.0,'1111122,1111122,1111122' 
DISL,ioos:station:DISL:PPTA:1,2017-03-02T18:00:00Z,30.2791,-87.5561,0.0,7.76,13.24,-999.0,'1111122,1111122,1111122' 
DISL,ioos:station:DISL:PPTA:1,2017-03-02T18:30:00Z,30.2791,-87.5561,0.0,6.75,9.44,-999.0,'1111122,1111122,1111122' 
DISL,ioos:station:DISL:PPTA:1,2017-03-02T19:00:00Z,30.2791,-87.5561,0.0,6.74,354.6,-999.0,'1111122,1111122,1111122' 
DISL,ioos:station:DISL:PPTA:1,2017-03-02T19:30:00Z,30.2791,-87.5561,0.0,7.24,5.392,-999.0,'1111122,1111122,1111122' 
DISL,ioos:station:DISL:PPTA:1,2017-03-02T20:00:00Z,30.2791,-87.5561,0.0,6.17,5.953,-999.0,'1111122,1111122,1111122' 
DISL,ioos:station:DISL:PPTA:1,2017-03-02T20:30:00Z,30.2791,-87.5561,0.0,6.8,13.15,-999.0,'1111122,1111122,1111122' 
DISL,ioos:station:DISL:PPTA:1,2017-03-02T21:00:00Z,30.2791,-87.5561,0.0,6.53,21.95,-999.0,'1111122,1111122,1111122' 
DISL,ioos:station:DISL:PPTA:1,2017-03-02T21:30:00Z,30.2791,-87.5561,0.0,6.1,8.99,-999.0,'1111122,1111122,1111122' 
DISL,ioos:station:DISL:PPTA:1,2017-03-02T22:00:00Z,30.2791,-87.5561,0.0,6.63,5.52,-999.0,'1111122,1111122,1111122' 
DISL,ioos:station:DISL:PPTA:1,2017-03-02T22:30:00Z,30.2791,-87.5561,0.0,5.82,2.199,-999.0,'1111122,1111122,1111122' 
DISL,ioos:station:DISL:PPTA:1,2017-03-02T23:00:00Z,30.2791,-87.5561,0.0,4.65,2.667,-999.0,'1111122,1111122,1111122' 
DISL,ioos:station:DISL:PPTA:1,2017-03-02T23:30:00Z,30.2791,-87.5561,0.0,4.63,356.5,-999.0,'1111122,1111122,1111122' 
DISL,ioos:station:DISL:PPTA:1,2017-03-03T00:00:00Z,30.2791,-87.5561,0.0,5.14,356.2,-999.0,'1111122,1111122,1111122' 
DISL,ioos:station:DISL:PPTA:1,2017-03-03T00:30:00Z,30.2791,-87.5561,0.0,5.1,357.6,-999.0,'1111122,1111122,1111122' 
DISL,ioos:station:DISL:PPTA:1,2017-03-03T01:00:00Z,30.2791,-87.5561,0.0,4.77,354.8,-999.0,'1111122,1111122,1111122' 
DISL,ioos:station:DISL:PPTA:1,2017-03-03T01:30:00Z,30.2791,-87.5561,0.0,3.81,351.4,-999.0,'1111122,1111122,1111122' 
DISL,ioos:station:DISL:PPTA:1,2017-03-03T02:00:00Z,30.2791,-87.5561,0.0,3.54,0.432,-999.0,'1111122,1111122,1111122' 
DISL,ioos:station:DISL:PPTA:1,2017-03-03T02:30:00Z,30.2791,-87.5561,0.0,3.23,3.026,-999.0,'1111122,1111122,1111122' 
DISL,ioos:station:DISL:PPTA:1,2017-03-03T03:00:00Z,30.2791,-87.5561,0.0,3.6,353.0,-999.0,'1111122,1111122,1111122' 
DISL,ioos:station:DISL:PPTA:1,2017-03-03T03:30:00Z,30.2791,-87.5561,0.0,5.17,356.2,-999.0,'1111122,1111122,1111122' 
DISL,ioos:station:DISL:PPTA:1,2017-03-03T04:00:00Z,30.2791,-87.5561,0.0,5.42,4.24,-999.0,'1111122,1111122,1111122' 
DISL,ioos:station:DISL:PPTA:1,2017-03-03T04:30:00Z,30.2791,-87.5561,0.0,4.93,7.843,-999.0,'1111122,1111122,1111122' 
DISL,ioos:station:DISL:PPTA:1,2017-03-03T05:00:00Z,30.2791,-87.5561,0.0,4.62,10.19,-999.0,'1111122,1111122,1111122' 
DISL,ioos:station:DISL:PPTA:1,2017-03-03T05:30:00Z,30.2791,-87.5561,0.0,4.24,15.23,-999.0,'1111122,1111122,1111122' 
DISL,ioos:station:DISL:PPTA:1,2017-03-03T06:00:00Z,30.2791,-87.5561,0.0,4.06,18.32,-999.0,'1111122,1111122,1111122' 
DISL,ioos:station:DISL:PPTA:1,2017-03-03T06:30:00Z,30.2791,-87.5561,0.0,3.51,25.57,-999.0,'1111122,1111122,1111122' 
DISL,ioos:station:DISL:PPTA:1,2017-03-03T07:00:00Z,30.2791,-87.5561,0.0,3.82,13.4,-999.0,'1111122,1111122,1111122' 
DISL,ioos:station:DISL:PPTA:1,2017-03-03T07:30:00Z,30.2791,-87.5561,0.0,3.54,347.6,-999.0,'1111122,1111122,1111122' 
DISL,ioos:station:DISL:PPTA:1,2017-03-03T08:00:00Z,30.2791,-87.5561,0.0,3.76,348.0,-999.0,'1111122,1111122,1111122' 
DISL,ioos:station:DISL:PPTA:1,2017-03-03T08:30:00Z,30.2791,-87.5561,0.0,3.63,352.9,-999.0,'1111122,1111122,1111122' 
DISL,ioos:station:DISL:PPTA:1,2017-03-03T09:00:00Z,30.2791,-87.5561,0.0,4.02,357.2,-999.0,'1111122,1111122,1111122' 
DISL,ioos:station:DISL:PPTA:1,2017-03-03T09:30:00Z,30.2791,-87.5561,0.0,4.78,6.951,-999.0,'1111122,1111122,1111122' 
DISL,ioos:station:DISL:PPTA:1,2017-03-03T10:00:00Z,30.2791,-87.5561,0.0,4.69,6.989,-999.0,'1111122,1111122,1111122' 
DISL,ioos:station:DISL:PPTA:1,2017-03-03T10:30:00Z,30.2791,-87.5561,0.0,5.23,12.57,-999.0,'1111122,1111122,1111122' 
DISL,ioos:station:DISL:PPTA:1,2017-03-03T11:00:00Z,30.2791,-87.5561,0.0,5.31,10.96,-999.0,'1111122,1111122,1111122' 
DISL,ioos:station:DISL:PPTA:1,2017-03-03T11:30:00Z,30.2791,-87.5561,0.0,4.79,19.84,-999.0,'1111122,1111122,1111122' 
DISL,ioos:station:DISL:PPTA:1,2017-03-03T12:00:00Z,30.2791,-87.5561,0.0,5.22,16.0,-999.0,'1111122,1111122,1111122' 
DISL,ioos:station:DISL:PPTA:1,2017-03-03T12:30:00Z,30.2791,-87.5561,0.0,5.21,21.36,-999.0,'1111122,1111122,1111122' 
DISL,ioos:station:DISL:PPTA:1,2017-03-03T13:00:00Z,30.2791,-87.5561,0.0,4.69,28.79,-999.0,'1111122,1111122,1111122' 
DISL,ioos:station:DISL:PPTA:1,2017-03-03T13:30:00Z,30.2791,-87.5561,0.0,4.88,36.14,-999.0,'1111122,1111122,1111122' 
DISL,ioos:station:DISL:PPTA:1,2017-03-03T14:00:00Z,30.2791,-87.5561,0.0,4.89,33.5,-999.0,'1111122,1111122,1111122' 
DISL,ioos:station:DISL:PPTA:1,2017-03-03T14:30:00Z,30.2791,-87.5561,0.0,5.06,36.13,-999.0,'1111122,1111122,1111122' 
DISL,ioos:station:DISL:PPTA:1,2017-03-03T15:00:00Z,30.2791,-87.5561,0.0,5.36,40.09,-999.0,'1111122,1111122,1111122' 
DISL,ioos:station:DISL:PPTA:1,2017-03-03T15:30:00Z,30.2791,-87.5561,0.0,5.38,55.73,-999.0,'1111122,1111122,1111122' 
DISL,ioos:station:DISL:PPTA:1,2017-03-03T16:00:00Z,30.2791,-87.5561,0.0,5.26,55.38,-999.0,'1111122,1111122,1111122' 
DISL,ioos:station:DISL:PPTA:1,2017-03-03T16:30:00Z,30.2791,-87.5561,0.0,5.97,55.09,-999.0,'1111122,1111122,1111122' 
DISL,ioos:station:DISL:PPTA:1,2017-03-03T17:00:00Z,30.2791,-87.5561,0.0,7.18,34.6,-999.0,'1111122,1111122,1111122' 
DISL,ioos:station:DISL:PPTA:1,2017-03-03T17:30:00Z,30.2791,-87.5561,0.0,7.28,46.47,-999.0,'1111122,1111122,1111122' 
DISL,ioos:station:DISL:PPTA:1,2017-03-03T18:00:00Z,30.2791,-87.5561,0.0,7.35,41.95,-999.0,'1111122,1111122,1111122' 
DISL,ioos:station:DISL:PPTA:1,2017-03-03T18:30:00Z,30.2791,-87.5561,0.0,5.54,38.18,-999.0,'1111122,1111122,1111122' 
DISL,ioos:station:DISL:PPTA:1,2017-03-03T19:00:00Z,30.2791,-87.5561,0.0,5.71,47.83,-999.0,'1111122,1111122,1111122' 
DISL,ioos:station:DISL:PPTA:1,2017-03-03T19:30:00Z,30.2791,-87.5561,0.0,5.58,44.52,-999.0,'1111122,1111122,1111122' 
DISL,ioos:station:DISL:PPTA:1,2017-03-03T20:00:00Z,30.2791,-87.5561,0.0,6.13,37.73,-999.0,'1111122,1111122,1111122' 
DISL,ioos:station:DISL:PPTA:1,2017-03-03T20:30:00Z,30.2791,-87.5561,0.0,5.79,19.67,-999.0,'1111122,1111122,1111122' 
DISL,ioos:station:DISL:PPTA:1,2017-03-03T21:00:00Z,30.2791,-87.5561,0.0,5.37,6.342,-999.0,'1111122,1111122,1111122' 
DISL,ioos:station:DISL:PPTA:1,2017-03-03T21:30:00Z,30.2791,-87.5561,0.0,5.32,25.22,-999.0,'1111122,1111122,1111122' 
DISL,ioos:station:DISL:PPTA:1,2017-03-03T22:00:00Z,30.2791,-87.5561,0.0,6.24,25.92,-999.0,'1111122,1111122,1111122' 
DISL,ioos:station:DISL:PPTA:1,2017-03-03T22:30:00Z,30.2791,-87.5561,0.0,5.05,36.76,-999.0,'1111122,1111122,1111122' 
DISL,ioos:station:DISL:PPTA:1,2017-03-03T23:00:00Z,30.2791,-87.5561,0.0,5.69,31.88,-999.0,'1111122,1111122,1111122' 
DISL,ioos:station:DISL:PPTA:1,2017-03-03T23:30:00Z,30.2791,-87.5561,0.0,4.25,27.0,-999.0,'1111122,1111122,1111122' 
DISL,ioos:station:DISL:PPTA:1,2017-03-04T00:00:00Z,30.2791,-87.5561,0.0,3.68,8.19,-999.0,'1111122,1111122,1111122' 
DISL,ioos:station:DISL:PPTA:1,2017-03-04T00:30:00Z,30.2791,-87.5561,0.0,3.25,22.87,-999.0,'1111122,1111122,1111122' 
DISL,ioos:station:DISL:PPTA:1,2017-03-04T01:00:00Z,30.2791,-87.5561,0.0,3.04,9.81,-999.0,'1111122,1111122,1111122' 
DISL,ioos:station:DISL:PPTA:1,2017-03-04T01:30:00Z,30.2791,-87.5561,0.0,3.57,11.07,-999.0,'1111122,1111122,1111122' 
DISL,ioos:station:DISL:PPTA:1,2017-03-04T02:00:00Z,30.2791,-87.5561,0.0,4.23,18.17,-999.0,'1111122,1111122,1111122' 
DISL,ioos:station:DISL:PPTA:1,2017-03-04T02:30:00Z,30.2791,-87.5561,0.0,4.04,19.99,-999.0,'1111122,1111122,1111122' 
DISL,ioos:station:DISL:PPTA:1,2017-03-04T03:00:00Z,30.2791,-87.5561,0.0,3.53,20.89,-999.0,'1111122,1111122,1111122' 
DISL,ioos:station:DISL:PPTA:1,2017-03-04T03:30:00Z,30.2791,-87.5561,0.0,4.0,28.59,-999.0,'1111122,1111122,1111122' 
DISL,ioos:station:DISL:PPTA:1,2017-03-04T04:00:00Z,30.2791,-87.5561,0.0,3.57,36.19,-999.0,'1111122,1111122,1111122' 
DISL,ioos:station:DISL:PPTA:1,2017-03-04T04:30:00Z,30.2791,-87.5561,0.0,3.68,37.42,-999.0,'1111122,1111122,1111122' 
DISL,ioos:station:DISL:PPTA:1,2017-03-04T05:00:00Z,30.2791,-87.5561,0.0,4.02,32.21,-999.0,'1111122,1111122,1111122' 
DISL,ioos:station:DISL:PPTA:1,2017-03-04T05:30:00Z,30.2791,-87.5561,0.0,3.82,27.01,-999.0,'1111122,1111122,1111122' 
DISL,ioos:station:DISL:PPTA:1,2017-03-04T06:00:00Z,30.2791,-87.5561,0.0,3.56,36.63,-999.0,'1111122,1111122,1111122' 
DISL,ioos:station:DISL:PPTA:1,2017-03-04T06:30:00Z,30.2791,-87.5561,0.0,3.48,28.95,-999.0,'1111122,1111122,1111122' 
DISL,ioos:station:DISL:PPTA:1,2017-03-04T07:00:00Z,30.2791,-87.5561,0.0,3.77,34.04,-999.0,'1111122,1111122,1111122' 
DISL,ioos:station:DISL:PPTA:1,2017-03-04T07:30:00Z,30.2791,-87.5561,0.0,3.67,32.52,-999.0,'1111122,1111122,1111122' 
DISL,ioos:station:DISL:PPTA:1,2017-03-04T08:00:00Z,30.2791,-87.5561,0.0,3.82,48.62,-999.0,'1111122,1111122,1111122' 
DISL,ioos:station:DISL:PPTA:1,2017-03-04T08:30:00Z,30.2791,-87.5561,0.0,4.94,50.39,-999.0,'1111122,1111122,1111122' 
DISL,ioos:station:DISL:PPTA:1,2017-03-04T09:00:00Z,30.2791,-87.5561,0.0,5.35,50.54,-999.0,'1111122,1111122,1111122' 
DISL,ioos:station:DISL:PPTA:1,2017-03-04T09:30:00Z,30.2791,-87.5561,0.0,6.35,54.33,-999.0,'1111122,1111122,1111122' 
DISL,ioos:station:DISL:PPTA:1,2017-03-04T10:00:00Z,30.2791,-87.5561,0.0,6.5,58.67,-999.0,'1111122,1111122,1111122' 
DISL,ioos:station:DISL:PPTA:1,2017-03-04T10:30:00Z,30.2791,-87.5561,0.0,6.64,58.89,-999.0,'1111122,1111122,1111122' 
DISL,ioos:station:DISL:PPTA:1,2017-03-04T11:00:00Z,30.2791,-87.5561,0.0,6.28,57.43,-999.0,'1111122,1111122,1111122' 
DISL,ioos:station:DISL:PPTA:1,2017-03-04T11:30:00Z,30.2791,-87.5561,0.0,6.75,61.58,-999.0,'1111122,1111122,1111122' 
DISL,ioos:station:DISL:PPTA:1,2017-03-04T12:00:00Z,30.2791,-87.5561,0.0,6.97,59.76,-999.0,'1111122,1111122,1111122' 
DISL,ioos:station:DISL:PPTA:1,2017-03-04T12:30:00Z,30.2791,-87.5561,0.0,7.02,59.33,-999.0,'1111122,1111122,1111122' 
DISL,ioos:station:DISL:PPTA:1,2017-03-04T13:00:00Z,30.2791,-87.5561,0.0,6.87,61.81,-999.0,'1111122,1111122,1111122' 
DISL,ioos:station:DISL:PPTA:1,2017-03-04T13:30:00Z,30.2791,-87.5561,0.0,7.19,66.7,-999.0,'1111122,1111122,1111122' 
DISL,ioos:station:DISL:PPTA:1,2017-03-04T14:00:00Z,30.2791,-87.5561,0.0,7.74,82.0,-999.0,'1111122,1111122,1111122' 
DISL,ioos:station:DISL:PPTA:1,2017-03-04T14:30:00Z,30.2791,-87.5561,0.0,6.88,80.5,-999.0,'1111122,1111122,1111122' 
DISL,ioos:station:DISL:PPTA:1,2017-03-04T15:00:00Z,30.2791,-87.5561,0.0,6.53,75.89,-999.0,'1111122,1111122,1111122' 
DISL,ioos:station:DISL:PPTA:1,2017-03-04T15:30:00Z,30.2791,-87.5561,0.0,6.29,79.89,-999.0,'1111122,1111122,1111122' 
DISL,ioos:station:DISL:PPTA:1,2017-03-04T16:00:00Z,30.2791,-87.5561,0.0,6.91,79.88,-999.0,'1111122,1111122,1111122' 
DISL,ioos:station:DISL:PPTA:1,2017-03-04T16:30:00Z,30.2791,-87.5561,0.0,7.13,85.6,-999.0,'1111122,1111122,1111122' 
DISL,ioos:station:DISL:PPTA:1,2017-03-04T17:00:00Z,30.2791,-87.5561,0.0,6.74,85.6,-999.0,'1111122,1111122,1111122' 
DISL,ioos:station:DISL:PPTA:1,2017-03-04T17:30:00Z,30.2791,-87.5561,0.0,6.39,84.0,-999.0,'1111122,1111122,1111122' 
DISL,ioos:station:DISL:PPTA:1,2017-03-04T18:00:00Z,30.2791,-87.5561,0.0,6.48,84.0,-999.0,'1111122,1111122,1111122' 
DISL,ioos:station:DISL:PPTA:1,2017-03-04T18:30:00Z,30.2791,-87.5561,0.0,6.03,81.0,-999.0,'1111122,1111122,1111122' 
DISL,ioos:station:DISL:PPTA:1,2017-03-04T19:00:00Z,30.2791,-87.5561,0.0,5.71,87.9,-999.0,'1111122,1111122,1111122' 
DISL,ioos:station:DISL:PPTA:1,2017-03-04T19:30:00Z,30.2791,-87.5561,0.0,5.18,107.9,-999.0,'1111122,1111122,1111122' 
DISL,ioos:station:DISL:PPTA:1,2017-03-04T20:00:00Z,30.2791,-87.5561,0.0,4.54,111.1,-999.0,'1111122,1111122,1111122' 
DISL,ioos:station:DISL:PPTA:1,2017-03-04T20:30:00Z,30.2791,-87.5561,0.0,4.38,112.6,-999.0,'1111122,1111122,1111122' 
DISL,ioos:station:DISL:PPTA:1,2017-03-04T21:00:00Z,30.2791,-87.5561,0.0,3.59,106.8,-999.0,'1111122,1111122,1111122' 
DISL,ioos:station:DISL:PPTA:1,2017-03-04T21:30:00Z,30.2791,-87.5561,0.0,3.82,112.5,-999.0,'1111122,1111122,1111122' 
DISL,ioos:station:DISL:PPTA:1,2017-03-04T22:00:00Z,30.2791,-87.5561,0.0,4.34,118.4,-999.0,'1111122,1111122,1111122' 
DISL,ioos:station:DISL:PPTA:1,2017-03-04T22:30:00Z,30.2791,-87.5561,0.0,4.32,118.3,-999.0,'1111122,1111122,1111122' 
DISL,ioos:station:DISL:PPTA:1,2017-03-04T23:00:00Z,30.2791,-87.5561,0.0,4.23,118.9,-999.0,'1111122,1111122,1111122' 
DISL,ioos:station:DISL:PPTA:1,2017-03-04T23:30:00Z,30.2791,-87.5561,0.0,3.81,123.1,-999.0,'1111122,1111122,1111122' 
DISL,ioos:station:DISL:PPTA:1,2017-03-05T00:00:00Z,30.2791,-87.5561,0.0,3.17,124.0,-999.0,'1111122,1111122,1111122' 
DISL,ioos:station:DISL:PPTA:1,2017-03-05T00:30:00Z,30.2791,-87.5561,0.0,3.19,138.5,-999.0,'1111122,1111122,1111122' 
DISL,ioos:station:DISL:PPTA:1,2017-03-05T01:00:00Z,30.2791,-87.5561,0.0,2.86,133.4,-999.0,'1111122,1111122,1111122' 
DISL,ioos:station:DISL:PPTA:1,2017-03-05T01:30:00Z,30.2791,-87.5561,0.0,3.18,117.4,-999.0,'1111122,1111122,1111122' 
DISL,ioos:station:DISL:PPTA:1,2017-03-05T02:00:00Z,30.2791,-87.5561,0.0,2.72,116.3,-999.0,'1111122,1111122,1111122' 
DISL,ioos:station:DISL:PPTA:1,2017-03-05T02:30:00Z,30.2791,-87.5561,0.0,2.03,86.8,-999.0,'1111122,1111122,1111122' 
DISL,ioos:station:DISL:PPTA:1,2017-03-05T03:00:00Z,30.2791,-87.5561,0.0,1.42,45.86,-999.0,'1111122,1111122,1111122' 
DISL,ioos:station:DISL:PPTA:1,2017-03-05T03:30:00Z,30.2791,-87.5561,0.0,1.34,348.7,-999.0,'1111122,1111122,1111122' 
DISL,ioos:station:DISL:PPTA:1,2017-03-05T04:00:00Z,30.2791,-87.5561,0.0,1.35,32.52,-999.0,'1111122,1111122,1111122' 
DISL,ioos:station:DISL:PPTA:1,2017-03-05T04:30:00Z,30.2791,-87.5561,0.0,1.52,28.11,-999.0,'1111122,1111122,1111122' 
DISL,ioos:station:DISL:PPTA:1,2017-03-05T05:00:00Z,30.2791,-87.5561,0.0,1.27,336.4,-999.0,'1111122,1111122,1111122' 
DISL,ioos:station:DISL:PPTA:1,2017-03-05T05:30:00Z,30.2791,-87.5561,0.0,1.38,5.897,-999.0,'1111122,1111122,1111122' 